DW7879 Weather Reports


time (UTC)temp
C
wind
direction
speed
KPH
gust
KPH
rain 1hr
cm
rain 24hr
cm
rain mn
cm
humidity
%
barometer
mb
20260906104511 22 251 0.0 0.0 0.00 0.00 0.00 97 1010.1
20260906103011 22 251 0.0 0.0 0.00 0.00 0.00 97 1010.2
20260906101510 22 251 0.0 1.6 0.00 0.00 0.00 97 1010.1
20260906100010 22 251 0.0 0.0 0.00 0.00 0.00 97 1010.0
20260906094509 22 259 0.0 1.6 0.00 0.00 0.00 97 1009.9
20260906093028 22 278 0.0 1.6 0.00 0.00 0.00 97 1010.0
20260906091509 22 278 0.0 0.0 0.00 0.00 0.00 96 1010.0
20260906090013 22 278 0.0 0.0 0.00 0.00 0.00 97 1010.0
20260906084510 22 273 0.0 0.0 0.00 0.00 0.00 96 1009.7
20260906083010 22 272 0.0 0.0 0.00 0.00 0.00 96 1010.0
20260906081504 22 273 0.0 0.0 0.00 0.00 0.00 96 1009.9
20260906080003 23 273 0.0 0.0 0.00 0.00 0.00 96 1009.9
20260906074504 23 300 0.0 4.8 0.00 0.00 0.00 96 1010.1
20260906073101 23 284 0.0 6.4 0.00 0.00 0.00 96 1010.3
20260906071558 23 265 0.0 0.0 0.00 0.00 0.00 96 1010.0
20260906070058 23 265 0.0 0.0 0.00 0.00 0.00 96 1009.7
20260906064556 23 265 0.0 1.6 0.00 0.00 0.00 96 1009.7
20260906063057 23 275 0.0 0.0 0.00 0.00 0.00 96 1009.5
20260906061602 23 275 0.0 0.0 0.00 0.00 0.00 95 1009.7
20260906060052 23 264 0.0 0.0 0.00 0.00 0.00 95 1009.9
20260906054551 23 264 0.0 0.0 0.00 0.00 0.00 95 1010.0
20260906053104 23 264 0.0 0.0 0.00 0.00 0.00 95 1010.3
20260906051548 23 300 0.0 0.0 0.00 0.00 0.00 95 1010.3
20260906050046 23 300 0.0 0.0 0.00 0.00 0.00 94 1010.4
20260906044543 23 300 0.0 0.0 0.00 0.00 0.00 94 1010.6
20260906043041 23 300 0.0 3.2 0.00 0.00 0.00 94 1010.7
20260906041551 23 304 0.0 0.0 0.00 0.00 0.00 95 1010.9
20260906040037 23 304 0.0 0.0 0.00 0.00 0.00 94 1010.8
20260906034543 24 303 0.0 0.0 0.00 0.00 0.00 94 1010.9
20260906033044 24 303 0.0 0.0 0.00 0.00 0.00 94 1010.6
20260906031540 24 302 0.0 0.0 0.00 0.00 0.00 94 1010.7
20260906030041 24 302 0.0 0.0 0.00 0.00 0.00 93 1010.4
20260906024534 24 303 0.0 0.0 0.00 0.00 0.00 92 1010.3
20260906023034 25 302 0.0 0.0 0.00 0.00 0.00 92 1010.0
20260906021534 25 302 0.0 0.0 0.00 0.00 0.00 92 1009.7
20260906020033 25 303 0.0 0.0 0.00 0.00 0.00 91 1009.7
20260906014543 25 302 0.0 0.0 0.00 0.00 0.00 90 1009.8
20260906013032 25 302 0.0 0.0 0.00 0.00 0.00 89 1009.7
20260906011537 26 302 0.0 0.0 0.00 0.00 0.00 88 1009.6
20260906010056 26 303 0.0 0.0 0.00 0.00 0.00 88 1009.4
20260906004531 26 304 0.0 0.0 0.00 0.00 0.00 87 1009.6
20260906003030 26 315 0.0 0.0 0.00 0.00 0.00 85 1009.6
20260906001546 26 316 0.0 0.0 0.00 0.00 0.00 83 1009.6
20260906000028 27 315 0.0 1.6 0.00 0.00 0.00 82 1009.5
20260905234528 27 78 0.0 0.0 0.00 0.00 0.00 80 1009.4
20260905233027 28 78 0.0 0.0 0.00 0.00 0.00 78 1009.4
20260905231539 30 78 0.0 0.0 0.00 0.00 0.00 75 1009.5
20260905230030 29 78 0.0 0.0 0.00 0.00 0.00 77 1009.2
20260905224539 28 333 0.0 1.6 0.00 0.00 0.00 79 1009.2
20260905223035 28 190 0.0 1.6 0.00 0.00 0.00 78 1009.4
20260905221524 28 294 0.0 1.6 0.00 0.00 0.00 79 1009.4
20260905220026 28 172 0.0 0.0 0.00 0.00 0.00 79 1009.4
20260905214521 27 210 0.0 0.0 0.00 0.00 0.00 81 1009.7
20260905213021 27 241 0.0 0.0 0.00 0.00 0.00 82 1009.8
20260905211535 27 241 0.0 3.2 0.00 0.00 0.00 81 1010.0
20260905210020 27 290 0.0 3.2 0.00 0.00 0.00 81 1009.9
20260905204524 27 263 0.0 0.0 0.00 0.00 0.00 82 1009.7
20260905203029 27 261 0.0 1.6 0.00 0.00 0.00 80 1010.1
20260905201525 28 284 0.0 1.6 0.00 0.00 0.00 80 1010.5
20260905200014 28 272 0.0 1.6 0.00 0.00 0.00 80 1010.4
20260905194512 28 122 0.0 0.0 0.00 0.00 0.00 79 1010.5
20260905193020 28 134 0.0 3.2 0.00 0.00 0.00 77 1010.6
20260905191523 28 256 0.0 1.6 0.00 0.00 0.00 78 1010.8
20260905190011 28 292 0.0 0.0 0.00 0.00 0.00 77 1010.7
20260905184510 29 293 0.0 1.6 0.00 0.00 0.00 75 1011.0
20260905183009 30 103 0.0 3.2 0.00 0.00 0.00 70 1011.0
20260905181510 32 326 0.0 8.0 0.00 0.00 0.00 69 1010.8
20260905180009 34 110 0.0 9.7 0.00 0.00 0.00 65 1011.1
20260905174506 35 270 0.0 11.3 0.00 0.00 0.00 58 1010.9
20260905173002 33 160 1.6 4.8 0.00 0.00 0.00 62 1010.8
20260905171602 33 60 3.2 9.7 0.00 0.00 0.00 64 1010.9
20260905170106 33 110 1.6 6.4 0.00 0.00 0.00 65 1011.0
20260905164602 33 103 0.0 3.2 0.00 0.00 0.00 69 1011.6
20260905163048 31 96 0.0 6.4 0.00 0.00 0.00 72 1011.7
20260905161545 31 117 0.0 6.4 0.00 0.00 0.00 74 1011.8
20260905160044 31 123 3.2 6.4 0.00 0.00 0.00 74 1011.8
20260905154543 31 114 3.2 9.7 0.00 0.00 0.00 74 1011.7
20260905153039 30 126 1.6 12.9 0.00 0.00 0.00 76 1011.9
20260905151539 30 90 4.8 11.3 0.00 0.00 0.00 75 1012.0
20260905150036 30 106 1.6 9.7 0.00 0.00 0.00 77 1012.3
20260905144536 29 110 0.0 6.4 0.00 0.00 0.00 79 1012.2
20260905143031 28 80 0.0 1.6 0.00 0.00 0.00 81 1012.3
20260905141530 28 103 0.0 3.2 0.00 0.00 0.00 79 1012.4
20260905140028 28 132 0.0 3.2 0.00 0.00 0.00 82 1012.3
20260905134529 28 85 0.0 0.0 0.00 0.00 0.00 85 1012.5
20260905133023 27 117 0.0 1.6 0.00 0.00 0.00 85 1012.7
20260905131521 26 138 0.0 3.2 0.00 0.00 0.00 87 1012.8
20260905130031 27 128 0.0 4.8 0.00 0.00 0.00 87 1012.8
20260905124517 26 111 0.0 3.2 0.00 0.00 0.00 89 1012.7
20260905123015 26 225 0.0 0.0 0.00 0.00 0.00 91 1012.8
20260905121512 25 263 0.0 0.0 0.00 0.00 0.00 95 1012.8
20260905120011 24 263 0.0 0.0 0.00 0.00 0.00 97 1012.6
20260905114509 23 263 0.0 0.0 0.00 0.00 0.00 97 1012.3
20260905113006 23 263 0.0 0.0 0.00 0.00 0.00 97 1011.9
20260905111506 23 263 0.0 0.0 0.00 0.00 0.00 97 1012.0
20260905110005 23 263 0.0 0.0 0.00 0.00 0.00 97 1011.9